Regional Weather Roundup
Issued by NWS

Home | Current Version | Previous Version | Text Only | Print | Product List | Glossary On
Versions: 1 2 3 4 5 6 7 8 9 10 11 12 13 14 15 16 17 18 19 20 21 22 23 24 25 26 27 28 29 30 31 32 33 34 35 36 37 38 39 40 41 42 43 44 45 46 47 48 49 50
098
ASUS45 KBOI 270910
RWRID

IDAHO REGIONAL WEATHER ROUNDUP
NATIONAL WEATHER SERVICE BOISE ID
300 AM MDT MON MAR 27 2017

NOTE: "FAIR" INDICATES FEW OR NO CLOUDS BELOW 12000 FEET
WITH NO SIGNIFICANT WEATHER AND/OR OBSTRUCTIONS TO VISIBILITY

IDZ012-014-271000-
SOUTHWEST IDAHO


CITY           SKY/WX    TMP DP  RH WIND       PRES   REMARKS
BOISE          CLOUDY    43  41  93 E6        29.90F
CALDWELL       CLOUDY    43  41  93 E9        29.90S
MOUNTAIN HOME  CLOUDY    44  44 100 N7        29.89S
$$

IDZ016-017-271000-
SOUTHCENTRAL IDAHO


CITY           SKY/WX    TMP DP  RH WIND       PRES   REMARKS
BURLEY         MOCLDY    38  35  89 CALM      29.87S
JEROME         CLOUDY    41  37  86 E10       29.87F
TWIN FALLS     CLOUDY    39  34  82 SE7       29.86F WCI  34
$$

IDZ019>023-271000-
SOUTHEAST IDAHO


CITY           SKY/WX    TMP DP  RH WIND       PRES   REMARKS
IDAHO FALLS    LGT RAIN  41  37  86 S12       29.90F
POCATELLO      CLOUDY    42  37  82 SW5       29.90F
REXBURG        CLOUDY    39  34  82 S10       29.89F WCI  32
$$

IDZ006-010-011-018-031-032-271000-
CENTRAL IDAHO MOUNTAINS


CITY           SKY/WX    TMP DP  RH WIND       PRES   REMARKS
MCCALL         LGT SNOW  33  31  92 SE6       29.83S FOG     WCI  28
HAILEY         CLOUDY    36  34  93 CALM      29.90F
STANLEY          N/A     33  27  78 CALM      29.85S
SALMON         CLOUDY    39  34  81 CALM      29.83S
CHALLIS        CLOUDY    40  26  57 CALM      29.84S
$$

IDZ002-004-006-007-026-271000-
NORTHERN IDAHO


CITY           SKY/WX    TMP DP  RH WIND       PRES   REMARKS
LEWISTON       LGT RAIN  45  41  86 W3        29.84R
LOWELL           N/A     41  38  89 NW5       29.88S
COEUR D`ALENE  LGT RAIN  41  39  93 S5        29.83S
MULLAN PASS    SNOW      30  30 100 S6        29.77S VSB 1/2 WCI  24
$$




USA.gov is the U.S. government's official web portal to all federal, state and local government web resources and services.